TimeEST,TemperatureF,Dew PointF,Humidity,Sea Level PressureIn,VisibilityMPH,Wind Direction,Wind SpeedMPH,Gust SpeedMPH,PrecipitationIn,Events,Conditions,WindDirDegrees,DateUTC
12:53 AM,32.0,19.9,61,30.04,10.0,NW,12.7,23.0,N/A,,Overcast,310,2012-11-24 05:53:00
1:53 AM,30.9,19.9,64,30.05,10.0,NW,13.8,20.7,N/A,,Overcast,310,2012-11-24 06:53:00
2:53 AM,30.9,19.9,64,30.06,10.0,WNW,12.7,18.4,N/A,,Overcast,300,2012-11-24 07:53:00
3:53 AM,30.9,19.9,64,30.06,10.0,WNW,12.7,-,N/A,,Overcast,290,2012-11-24 08:53:00
4:53 AM,30.9,19.0,61,30.06,10.0,WNW,15.0,23.0,N/A,,Overcast,300,2012-11-24 09:53:00
5:53 AM,30.9,19.9,64,30.08,10.0,NW,9.2,-,N/A,,Overcast,310,2012-11-24 10:53:00
6:53 AM,30.0,19.9,66,30.09,10.0,WNW,10.4,-,0.00,Snow,Light Snow,300,2012-11-24 11:53:00
7:53 AM,30.0,18.0,61,30.10,10.0,WNW,8.1,18.4,0.00,,Overcast,300,2012-11-24 12:53:00
8:53 AM,30.9,19.0,61,30.12,10.0,WNW,11.5,-,N/A,,Overcast,290,2012-11-24 13:53:00
9:53 AM,32.0,18.0,56,30.13,10.0,NNW,13.8,20.7,N/A,,Overcast,330,2012-11-24 14:53:00
10:53 AM,32.0,17.1,54,30.13,10.0,NNW,16.1,24.2,N/A,,Overcast,340,2012-11-24 15:53:00
11:53 AM,30.9,18.0,59,30.13,10.0,NW,12.7,-,N/A,,Overcast,320,2012-11-24 16:53:00
12:53 PM,32.0,18.0,56,30.11,10.0,WNW,13.8,21.9,N/A,,Overcast,300,2012-11-24 17:53:00
1:53 PM,32.0,18.0,56,30.11,10.0,NW,12.7,-,N/A,,Overcast,320,2012-11-24 18:53:00
2:53 PM,32.0,17.1,54,30.11,10.0,WNW,13.8,-,N/A,,Overcast,300,2012-11-24 19:53:00
3:53 PM,32.0,17.1,54,30.11,10.0,WNW,13.8,-,N/A,,Overcast,300,2012-11-24 20:53:00
4:53 PM,30.9,17.1,57,30.11,10.0,WNW,8.1,19.6,N/A,,Overcast,300,2012-11-24 21:53:00
5:53 PM,30.0,18.0,61,30.12,10.0,WNW,5.8,-,N/A,,Overcast,290,2012-11-24 22:53:00
6:53 PM,30.0,18.0,61,30.11,10.0,WNW,9.2,-,N/A,,Overcast,300,2012-11-24 23:53:00
7:53 PM,30.0,18.0,61,30.11,10.0,West,10.4,-,N/A,,Overcast,280,2012-11-25 00:53:00
8:53 PM,30.0,19.0,64,30.09,10.0,WNW,4.6,-,N/A,,Overcast,300,2012-11-25 01:53:00
9:53 PM,30.0,19.0,64,30.07,10.0,West,5.8,-,N/A,,Overcast,260,2012-11-25 02:53:00
10:53 PM,30.0,19.0,64,30.06,10.0,West,6.9,-,N/A,,Overcast,280,2012-11-25 03:53:00
11:18 PM,28.4,19.4,69,30.03,10.0,West,5.8,-,N/A,,Overcast,260,2012-11-25 04:18:00
11:53 PM,28.9,19.9,69,30.06,10.0,WSW,6.9,-,N/A,,Overcast,240,2012-11-25 04:53:00